Location: ???
(30.4832°N, 114.1966°E)
Time: 13:44:11
(UTC+00:00)

OAO 2 Rocket - Pass Details

Date: 14 July 2020
Orbit: 676 x 746 km, 35.0° (Epoch: 05 August)

Event Time Altitude Azimuth Distance (km) Brightness Sun altitude
Rises 11:41:00 0° 287° (WNW) 3,109 8.9 -3.5°
Reaches altitude 10° 11:43:26 10° 291° (WNW) 2,200 7.8 -3.9°
Maximum altitude 11:48:35 65° 13° (NNE) 801 3.7 -4.9°
Drops below altitude 10° 11:53:49 10° 95° (E) 2,236 5.4 -5.9°
Enters shadow 11:54:59 - 97° (E) 2,671 5.7 -6.1°
